Location: El Bakhil
(32.7726°N, 5.5387°W)
Time: 12:10:06
(UTC+00:00)

Cosmos 2154 Rocket - Pass Details

Date: 03 March 2021
Orbit: 966 x 996 km, 82.9° (Epoch: 15 April)

Event Time Altitude Azimuth Distance (km) Brightness Sun altitude
Rises 19:14:29 0° 190° (S) 3,661 7.1 -12.0°
Reaches altitude 10° 19:17:00 10° 192° (SSW) 2,712 6.5 -12.5°
Maximum altitude 19:23:11 72° 276° (W) 1,017 4.3 -13.8°
Drops below altitude 10° 19:29:23 10° 1° (N) 2,712 6.3 -15.2°
Sets 19:31:55 0° 4° (N) 3,661 7.0 -15.7°
